Regional Weather Roundup
Issued by NWS

Home | Current Version | Previous Version | Graphics & Text | Print | Product List | Glossary On
Versions: 1 2 3 4 5 6 7 8 9 10 11 12 13 14 15 16 17 18 19 20 21 22 23 24 25 26 27 28 29 30 31 32 33 34 35 36 37 38 39 40 41 42 43 44 45 46 47 48 49 50
000
ASUS43 KBIS 260459
RWRND

NORTH DAKOTA REGIONAL WEATHER ROUNDUP
NATIONAL WEATHER SERVICE BISMARCK ND
1100 PM CST TUE NOV 25 2014

NOTE: "FAIR" INDICATES FEW OR NO CLOUDS BELOW 12,000 FEET WITH NO
SIGNIFICANT WEATHER AND/OR OBSTRUCTIONS TO VISIBILITY.


NDZ001>003-009>011-017-260600-
NORTHWEST NORTH DAKOTA

CITY           SKY/WX    TMP DP  RH WIND       PRES   REMARKS
WILLISTON      CLOUDY    17  11  77 NE10      30.17R WCI   5
MINOT          CLOUDY     7   2  80 N14       30.16R WCI -10
MINOT AFB      MOCLDY     5   1  85 N8        30.17R WCI  -8
$$

NDZ018>021-031>035-040>046-260600-
SOUTHWEST NORTH DAKOTA

CITY           SKY/WX    TMP DP  RH WIND       PRES   REMARKS
BISMARCK       CLOUDY    19  13  77 N18G26    30.05R WCI   4
GARRISON         N/A     15  11  83 N10G18    30.11R WCI   2
HETTINGER ARPT CLOUDY    22  19  89 N23G30    30.03R WCI   6
$$

NDZ004>008-012>016-024-026-027-054-260600-
NORTHEAST NORTH DAKOTA

CITY           SKY/WX    TMP DP  RH WIND       PRES   REMARKS
GRAND FORKS    LGT SNOW  12   8  84 N15       30.13R FOG     WCI  -4
GRND FRKS AFB  LGT SNOW  10   7  85 N16G25    30.13R FOG     WCI  -7
DEVILS LAKE    MOCLDY     9  -2  61 NE16      30.09R WCI  -9
$$

NDZ022-023-025-028>030-036>039-047>053-260600-
SOUTHEAST NORTH DAKOTA

CITY           SKY/WX    TMP DP  RH WIND       PRES   REMARKS
FARGO          LGT SNOW  23  20  88 N10       30.03R FOG     WCI  12
$$



USA.gov is the U.S. government's official web portal to all federal, state and local government web resources and services.